Notices

What's New in latest Release from April 7th, 2021:

- Updated Glossary, including Speed of Maximum Gust, and Total Hourly Precipitation

- Updated national and regional climate services offices contacts and prices information

- Addition of station inventory lists for 1981-2010, 1971-2000, and 1961-1990 Normals.

If you haven't already, please take our survey and provide feedback about our website: https://eccc.sondage-survey.ca/f/LanguageSelection.aspx?s=442ca660-fcf1-47c0-95a9-59707d6fd709

Hourly Data Report for May 05, 2020

MIRAMICHI RCS
NEW BRUNSWICK
Current Station Operator: ECCC - MSC

47°00'34.000" N
65°27'54.000" W
33.00 m
8100989
71744
ACQ

Download Data

Hourly Data (May 2020)
Hourly Data Report for May 5, 2020
TIME
LST
Temp Definition
°C
Dew Point Definition
°C
Rel Hum Definition
%
Precip. Amount Definition
mm

Wind Dir Definition
10's deg

Wind Spd Definition
km/h
Visibility Definition
km
Stn Press Definition
kPa
Hmdx Definition


Wind Chill Definition


Weather Definition


00:00 1.1 0.5 96 LegendMM 2 14   99.68     LegendNANA
01:00 0.8 0.4 97 LegendMM 3 12   99.66     LegendNANA
02:00 1.1 1.0 99 LegendMM 4 14   99.65     LegendNANA
03:00 1.0 0.5 97 LegendMM 3 17   99.65     LegendNANA
04:00 0.5 0.2 98 LegendMM 2 14   99.66     LegendNANA
05:00 0.8 0.3 97 LegendMM 3 14   99.66     LegendNANA
06:00 0.9 0.3 96 LegendMM 2 14   99.70     LegendNANA
07:00 1.1 0.5 96 LegendMM 3 17   99.73     LegendNANA
08:00 0.6 0.1 96 LegendMM 2 15   99.77     LegendNANA
09:00 0.7 0.1 96 LegendMM 3 20   99.82     LegendNANA
10:00 0.9 0.6 98 LegendMM 2 18   99.88     LegendNANA
11:00 0.9 0.4 97 LegendMM 2 18   99.93     LegendNANA
12:00 1.2 0.5 95 LegendMM 2 14   99.95     LegendNANA
13:00 1.3 0.7 96 LegendMM 1 14   99.99     LegendNANA
14:00 1.8 1.0 94 LegendMM 36 12   100.05     LegendNANA
15:00 2.0 1.1 93 LegendMM 36 13   100.13     LegendNANA
16:00 2.2 0.6 89 LegendMM 35 16   100.18     LegendNANA
17:00 2.2 1.1 93 LegendMM 33 15   100.23     LegendNANA
18:00 1.9 0.7 92 LegendMM 34 13   100.27     LegendNANA
19:00 1.7 0.2 90 LegendMM 33 9   100.34     LegendNANA
20:00 1.7 0.4 91 LegendMM 31 10   100.37     LegendNANA
21:00 1.8 0.2 89 LegendMM 31 8   100.39     LegendNANA
22:00 1.8 0.4 91 LegendMM 30 11   100.37     LegendNANA
23:00 2.0 0.5 90 LegendMM 31 11   100.35     LegendNANA

Notes on Data Quality.

Legend

  • E = Estimated
  • M = Missing
  • NA = Not Available*
  • [empty] = Indicates an unobserved value
Date modified: